When you browse on this site, cookies collect data to enhance your experience and personalize the content and advertising you see.
Visit our Privacy Policy to learn more. By continuing to use the site, you agree to this use of cookies and data.
  • In Czech Republic
  • List of Countries
  • For 7 days
  • Water Temperature
  • Satellite Maps
  • Weather Map
  • Weather Widgets
  • user-avatar
    Login

    Hourly Weather Merrimack

    Today, 17 July, Wednesday

    Time Temperature Precipitation Wind Pressure Humidity
    00:00 +24°C° 0 mm 2 mps 755 mmHg 80%
    01:00 +24°C° 0 mm 2 mps 755 mmHg 81%
    02:00 +24°C° 0 mm 2 mps 754 mmHg 82%
    03:00 +24°C° 0 mm 2 mps 754 mmHg 83%
    04:00 +24°C° 0 mm 2 mps 754 mmHg 84%
    05:00 +24°C° 0 mm 2 mps 754 mmHg 83%
    06:00 +25°C° 0 mm 2 mps 755 mmHg 83%
    07:00 +25°C° 0 mm 3 mps 755 mmHg 82%
    08:00 +26°C° 0.2 mm 2 mps 755 mmHg 82%
    09:00 +26°C° 0.2 mm 2 mps 755 mmHg 83%
    10:00 +26°C° 0.2 mm 1 mps 754 mmHg 84%
    11:00 +28°C° 0.2 mm 2 mps 754 mmHg 78%
    12:00 +30°C° 0.2 mm 2 mps 754 mmHg 73%
    13:00 +33°C° 0.2 mm 3 mps 754 mmHg 68%
    14:00 +30°C° 0.5 mm 3 mps 753 mmHg 75%
    15:00 +27°C° 0.5 mm 3 mps 753 mmHg 82%
    16:00 +25°C° 0.5 mm 3 mps 753 mmHg 90%
    17:00 +25°C° 0.5 mm 3 mps 753 mmHg 92%
    18:00 +24°C° 0.5 mm 2 mps 754 mmHg 94%
    19:00 +23°C° 0.5 mm 2 mps 754 mmHg 95%
    20:00 +23°C° 2.2 mm 1 mps 754 mmHg 96%
    21:00 +22°C° 2.2 mm 1 mps 754 mmHg 97%
    22:00 +20°C° 2.2 mm 0 mps 754 mmHg 98%
    23:00 +20°C° 1.5 mm 0 mps 754 mmHg 98%

    Tomorrow, 18 July, Thursday

    Time Temperature Precipitation Wind Pressure Humidity
    00:00 +20°C° 1.5 mm 0 mps 754 mmHg 98%
    01:00 +19°C° 1.5 mm 0 mps 754 mmHg 97%
    02:00 +21°C° 0 mm 1 mps 755 mmHg 97%
    03:00 +21°C° 0 mm 1 mps 755 mmHg 97%
    04:00 +21°C° 0 mm 1 mps 755 mmHg 97%
    05:00 +20°C° 0 mm 2 mps 756 mmHg 94%
    06:00 +20°C° 0 mm 3 mps 756 mmHg 91%
    07:00 +20°C° 0 mm 3 mps 757 mmHg 87%
    08:00 +21°C° 0 mm 4 mps 757 mmHg 78%
    09:00 +22°C° 0 mm 4 mps 757 mmHg 68%
    10:00 +23°C° 0 mm 4 mps 757 mmHg 59%
    11:00 +23°C° 0 mm 4 mps 757 mmHg 58%
    12:00 +25°C° 0 mm 4 mps 757 mmHg 56%
    13:00 +25°C° 0 mm 4 mps 757 mmHg 55%
    14:00 +25°C° 0 mm 3 mps 756 mmHg 54%
    15:00 +25°C° 0 mm 3 mps 756 mmHg 54%
    16:00 +25°C° 0 mm 3 mps 756 mmHg 54%
    17:00 +24°C° 0 mm 2 mps 756 mmHg 60%
    18:00 +21°C° 0 mm 2 mps 756 mmHg 67%
    19:00 +20°C° 0 mm 2 mps 756 mmHg 73%
    20:00 +20°C° 0 mm 1 mps 756 mmHg 76%
    21:00 +19°C° 0 mm 1 mps 756 mmHg 78%
    22:00 +18°C° 0 mm 1 mps 756 mmHg 81%
    23:00 +18°C° 0 mm 1 mps 756 mmHg 82%

    Day after tomorrow, 19 July, Friday

    Time Temperature Precipitation Wind Pressure Humidity
    00:00 +16°C° 0 mm 0 mps 756 mmHg 83%
    01:00 +15°C° 0 mm 0 mps 756 mmHg 84%
    02:00 +15°C° 0 mm 0 mps 756 mmHg 85%
    03:00 +15°C° 0 mm 0 mps 756 mmHg 86%
    04:00 +14°C° 0 mm 0 mps 756 mmHg 88%
    05:00 +16°C° 0 mm 0 mps 756 mmHg 83%
    06:00 +18°C° 0 mm 0 mps 756 mmHg 78%
    07:00 +20°C° 0 mm 0 mps 756 mmHg 72%
    08:00 +24°C° 0 mm 1 mps 755 mmHg 68%
    09:00 +27°C° 0 mm 1 mps 755 mmHg 63%
    10:00 +29°C° 0 mm 2 mps 755 mmHg 58%
    11:00 +31°C° 0 mm 2 mps 754 mmHg 54%
    12:00 +34°C° 0 mm 2 mps 754 mmHg 50%
    13:00 +35°C° 0 mm 2 mps 754 mmHg 45%
    14:00 +36°C° 0 mm 3 mps 753 mmHg 46%
    15:00 +36°C° 0 mm 3 mps 753 mmHg 46%
    16:00 +36°C° 0 mm 3 mps 753 mmHg 46%
    17:00 +35°C° 0 mm 2 mps 753 mmHg 56%
    18:00 +32°C° 0 mm 2 mps 753 mmHg 66%
    19:00 +30°C° 0 mm 2 mps 753 mmHg 75%
    20:00 +29°C° 0 mm 2 mps 752 mmHg 78%
    21:00 +28°C° 0 mm 2 mps 752 mmHg 80%
    22:00 +27°C° 0 mm 2 mps 752 mmHg 82%
    23:00 +27°C° 0 mm 2 mps 752 mmHg 84%

    20 July, Saturday

    Time Temperature Precipitation Wind Pressure Humidity
    00:00 +26°C° 0 mm 2 mps 752 mmHg 86%
    01:00 +26°C° 0 mm 2 mps 751 mmHg 88%
    02:00 +26°C° 0 mm 2 mps 751 mmHg 88%
    03:00 +26°C° 0 mm 2 mps 751 mmHg 89%
    04:00 +26°C° 0 mm 3 mps 751 mmHg 90%
    05:00 +28°C° 0 mm 3 mps 751 mmHg 85%
    06:00 +29°C° 0 mm 3 mps 751 mmHg 79%
    07:00 +31°C° 0 mm 3 mps 751 mmHg 74%
    08:00 +34°C° 0 mm 4 mps 751 mmHg 66%
    09:00 +35°C° 0 mm 4 mps 751 mmHg 59%
    10:00 +37°C° 0 mm 4 mps 751 mmHg 52%
    11:00 +39°C° 0 mm 5 mps 750 mmHg 47%
    12:00 +40°C° 0 mm 5 mps 750 mmHg 42%
    13:00 +41°C° 0 mm 5 mps 749 mmHg 38%
    14:00 +41°C° 0 mm 5 mps 749 mmHg 38%
    15:00 +41°C° 0 mm 5 mps 749 mmHg 38%
    16:00 +41°C° 0 mm 5 mps 749 mmHg 38%
    17:00 +37°C° 0 mm 5 mps 749 mmHg 46%
    18:00 +35°C° 0 mm 4 mps 749 mmHg 54%
    19:00 +33°C° 0 mm 4 mps 749 mmHg 62%
    20:00 +31°C° 0 mm 3 mps 749 mmHg 63%
    21:00 +31°C° 0 mm 3 mps 749 mmHg 65%
    22:00 +31°C° 0 mm 3 mps 750 mmHg 66%
    23:00 +29°C° 0 mm 2 mps 750 mmHg 71%

    21 July, Sunday

    Time Temperature Precipitation Wind Pressure Humidity
    00:00 +28°C° 0 mm 2 mps 750 mmHg 76%
    01:00 +27°C° 0 mm 2 mps 750 mmHg 80%
    02:00 +27°C° 0.1 mm 1 mps 750 mmHg 84%
    03:00 +26°C° 0.1 mm 1 mps 750 mmHg 87%
    04:00 +25°C° 0.1 mm 1 mps 750 mmHg 91%
    05:00 +26°C° 0 mm 1 mps 751 mmHg 86%
    06:00 +28°C° 0 mm 1 mps 751 mmHg 81%
    07:00 +29°C° 0 mm 1 mps 751 mmHg 76%
    08:00 +31°C° 0 mm 1 mps 751 mmHg 65%
    09:00 +33°C° 0 mm 1 mps 751 mmHg 54%
    10:00 +35°C° 0 mm 2 mps 752 mmHg 43%
    11:00 +36°C° 0 mm 2 mps 752 mmHg 39%
    12:00 +37°C° 0 mm 2 mps 751 mmHg 35%
    13:00 +37°C° 0 mm 2 mps 751 mmHg 31%
    14:00 +37°C° 0 mm 2 mps 751 mmHg 32%
    15:00 +37°C° 0 mm 2 mps 751 mmHg 33%
    16:00 +37°C° 0 mm 2 mps 751 mmHg 35%
    17:00 +34°C° 0 mm 2 mps 751 mmHg 46%
    18:00 +30°C° 0 mm 2 mps 751 mmHg 57%
    19:00 +28°C° 0 mm 1 mps 751 mmHg 68%
    20:00 +27°C° 0 mm 1 mps 751 mmHg 71%
    21:00 +26°C° 0 mm 1 mps 751 mmHg 74%
    22:00 +25°C° 0 mm 1 mps 751 mmHg 76%
    23:00 +24°C° 0 mm 1 mps 751 mmHg 78%

    22 July, Monday

    Time Temperature Precipitation Wind Pressure Humidity
    00:00 +24°C° 0 mm 1 mps 751 mmHg 80%
    01:00 +24°C° 0 mm 1 mps 750 mmHg 82%
    02:00 +23°C° 0 mm 2 mps 750 mmHg 80%
    03:00 +23°C° 0 mm 2 mps 750 mmHg 77%
    04:00 +21°C° 0 mm 2 mps 750 mmHg 75%
    05:00 +20°C° 0.2 mm 2 mps 750 mmHg 77%
    06:00 +19°C° 0.2 mm 2 mps 750 mmHg 79%
    07:00 +18°C° 0.2 mm 2 mps 750 mmHg 82%
    08:00 +19°C° 0.1 mm 2 mps 750 mmHg 74%
    09:00 +20°C° 0.1 mm 2 mps 750 mmHg 66%
    10:00 +21°C° 0.1 mm 3 mps 750 mmHg 57%
    11:00 +21°C° 0.1 mm 3 mps 750 mmHg 61%
    12:00 +21°C° 0.1 mm 3 mps 750 mmHg 65%
    13:00 +20°C° 0.1 mm 3 mps 750 mmHg 68%
    14:00 +19°C° 0.9 mm 2 mps 750 mmHg 77%
    15:00 +18°C° 0.9 mm 2 mps 750 mmHg 87%
    16:00 +18°C° 0.9 mm 1 mps 751 mmHg 96%
    17:00 +18°C° 0.2 mm 1 mps 751 mmHg 96%
    18:00 +19°C° 0.2 mm 1 mps 751 mmHg 96%
    19:00 +19°C° 0.2 mm 1 mps 751 mmHg 96%
    20:00 +18°C° 0 mm 1 mps 751 mmHg 96%
    21:00 +18°C° 0 mm 1 mps 752 mmHg 96%
    22:00 +18°C° 0 mm 1 mps 752 mmHg 96%
    23:00 +18°C° 0 mm 1 mps 752 mmHg 96%
    Show more